Erie, PA

3:53 PM EST on December 06, 2019 (GMT -0500)
Erie International

Weather History for KERI - October, 2019

Change the Weather History Date:

Wednesday, October 9, 2019

  Actual Average Record
Temperature  
Mean Temperature 58 °F 55 °F  
Max Temperature 66 °F 63 °F 87 °F (2018)
Min Temperature 48 °F 47 °F 34 °F (2000)
Degree Days  
Heating Degree Days 8 10  
Month to date heating degree days 46 81  
Since 1 July heating degree days 58 205  
Cooling Degree Days 0 0  
Month to date cooling degree days 20 7  
Year to date cooling degree days 845 636  
Growing Degree Days 8 (Base 50)    
Moisture  
Dew Point 43 °F    
Average Humidity 60    
Maximum Humidity 80    
Minimum Humidity 45    
Precipitation  
Precipitation 0.00 in 0.14 in 1.36 in (1977)
Month to date precipitation 0.57 1.31  
Year to date precipitation 30.20 31.75  
Snow  
Snow 0.00 in 0.00 in - ()
Month to date snowfall 0.0 0.0  
Since 1 July snowfall 0.0 0.0  
Since 1 September snowfall 0.0 0.0  
Snow Depth 0.00 in    
Sea Level Pressure  
Sea Level Pressure 30.26 in    
Wind  
Wind Speed 9 mph ()    
Max Wind Speed 20 mph    
Max Gust Speed 24 mph    
Visibility 10.0 miles    
Events Rain    
T = Trace of Precipitation, MM = Missing Value Source: Averaged Metar Reports

Daily Weather History Graph

Daily Weather History Graph

Search for Another Location

Airport or City:

Astronomy

Oct. 09, 2019 Rise Set
Actual Time 7:26 AM EDT 6:49 PM EDT
Civil Twilight 6:58 AM EDT 7:17 PM EDT
Nautical Twilight 6:25 AM EDT 7:49 PM EDT
Astronomical Twilight 5:53 AM EDT 8:21 PM EDT
Moon 5:25 PM EDT (10/9) 3:05 AM EDT (10/9)
Length of Visible Light 12h 18m
Length of Day
11h 22m
Waxing Gibbous, 85% of the Moon is Illuminated
Oct 9
Waxing Gibbous
Oct 13
Full
Oct 21
Last Quarter
Oct 27
New
Nov 4
First Quarter

Hourly Weather History & Observations

Time (EDT) Temp. Dew Point Humidity Pressure Visibility Wind Dir Wind Speed Gust Speed Precip Events Conditions
12:51 AM 54.0 °F 43.0 °F 66% 30.25 in 10.0 mi SSE 10.4 mph - N/A   Clear
1:51 AM 55.0 °F 42.1 °F 62% 30.25 in 10.0 mi SE 10.4 mph - N/A   Clear
2:51 AM 53.1 °F 42.1 °F 66% 30.25 in 10.0 mi SE 9.2 mph - N/A   Clear
3:51 AM 52.0 °F 41.0 °F 66% 30.24 in 10.0 mi SE 9.2 mph - N/A   Clear
4:51 AM 52.0 °F 39.9 °F 63% 30.25 in 10.0 mi SE 9.2 mph - N/A   Clear
5:51 AM 50.0 °F 39.9 °F 68% 30.27 in 10.0 mi SSE 9.2 mph - N/A   Clear
6:51 AM 48.9 °F 39.9 °F 71% 30.29 in 10.0 mi SSE 10.4 mph - N/A   Clear
7:51 AM 50.0 °F 39.0 °F 66% 30.29 in 10.0 mi SSE 9.2 mph - N/A   Clear
8:51 AM 54.0 °F 39.9 °F 59% 30.30 in 10.0 mi SSE 5.8 mph - N/A   Clear
9:51 AM 57.9 °F 42.1 °F 56% 30.31 in 10.0 mi SSE 10.4 mph - N/A   Clear
10:51 AM 62.1 °F 44.1 °F 52% 30.30 in 10.0 mi SE 6.9 mph 16.1 mph N/A   Clear
11:51 AM 64.0 °F 44.1 °F 48% 30.29 in 10.0 mi East 3.5 mph - N/A   Clear
12:51 PM 64.9 °F 46.9 °F 52% 30.27 in 10.0 mi North 10.4 mph - N/A   Clear
1:51 PM 64.9 °F 48.9 °F 56% 30.25 in 10.0 mi NNE 15.0 mph - N/A   Clear
2:51 PM 66.0 °F 50.0 °F 56% 30.24 in 10.0 mi NE 13.8 mph 17.3 mph N/A   Clear
3:51 PM 64.9 °F 48.9 °F 56% 30.23 in 10.0 mi NNE 15.0 mph - N/A   Clear
4:51 PM 64.9 °F 43.0 °F 45% 30.22 in 10.0 mi NE 15.0 mph - 0.00 in Rain Light Rain
5:51 PM 63.0 °F 46.0 °F 54% 30.22 in 10.0 mi NE 15.0 mph - 0.00 in Rain Light Rain
6:51 PM 61.0 °F 45.0 °F 56% 30.22 in 10.0 mi ENE 12.7 mph - 0.00 in Rain Light Rain
7:51 PM 59.0 °F 44.1 °F 58% 30.23 in 10.0 mi ENE 11.5 mph - 0.00 in   Clear
8:51 PM 55.0 °F 41.0 °F 59% 30.24 in 10.0 mi ENE 8.1 mph - N/A   Clear
9:51 PM 54.0 °F 39.9 °F 59% 30.25 in 10.0 mi Calm Calm - N/A   Clear
10:51 PM 48.9 °F 42.1 °F 77% 30.25 in 10.0 mi ESE 3.5 mph - N/A   Clear
11:51 PM 51.1 °F 41.0 °F 68% 30.24 in 10.0 mi SSE 6.9 mph - N/A   Clear